COSMOS 2491 DEB, 47110

Orbit data source: Space-Track

COSMOS 2491 DEB, 47110 is space debris in LEO originally from a launch on Wed, 25 Dec 2013 UTC launched from the Plesetsk Missile And Space Complex (PKMTR). Debris objects in space refer to the collection of defunct objects orbiting the Earth. Examples of debris include non-operational satellites, rocket bodies, and fragments generated from explosions, collisions, or faulty payload assembly.

Loading next visibility...
Identifier
47110, 2013-076AF
Orbit
LEO
Country
Flag of CISCIS
Related business
Manufacturer
TsNIIKhM
Mission
Spacecraft
Bus & Motor
Unknown
Mass
Unknown
Launch date (UTC)
2013-12-25 (13 years ago)
Launch vehicle
Unknown
Launch site
Plesetsk Missile And Space Complex (PKMTR)
Object type
Payload
Rocket body
Debris
Shape & HBR
Unknown shape, 0.1 m
Radar Cross Section
Small (<0.1 m²)

Expand to show TLE details & history
Last TLE update: 1 week ago

TLE from 1 week ago
0 COSMOS 2491 DEB
1 47110U 13076AF  26249.78351745  .00001016  00000-0  57868-2 0  9997
2 47110  82.4425  81.8131 0094347   5.0405 355.1612 12.58899928301865
Epoch: 2026-09-06T18:48Z
TLE epoch observation values (Epoch: 2026-09-06T18:48:15.907Z)
Latitude
0.00005°
Longitude
173.87315°
Altitude
1,356.821 km
Speed
7.214 km/s
True Right ascension
05h 27m 15s
True Declination
0° 00' 00"
Sunlit
Object was in daylight at epoch
Visualization orbit readout
Latitude
Unknown
Longitude
Unknown
Altitude
Unknown
Speed
Unknown
Apparent Right ascension
Unknown
Apparent Declination
Unknown
Sunlit
N/A
Visualization observer readout
Local Sidereal Time
23:21:19
Azimuth
Unknown
Elevation
Unknown
Doppler factor
Unknown
Orbital elements
Apogee altitude
1,498.437 km
Perigee altitude
1,351.2 km
Semi-major axis
7,802.956 km
Eccentricity
0.00943
Inclination
82.4425°
RAAN
81.8131°
Arg. of periapsis
5.0405°
True anomaly
355.06892°
Mean anomaly
355.1612°
Eccentric anomaly
355.11517°
Mean motion
3.14887 °/min
Orbital period
114.33 mins
BSTAR
0.0057868
Loading maneuver chart data...
Computing Atmospheric mass density...
Loading historical data...
Loading historical data...
Loading historical data...
Loading historical data...
Loading historical data...
Loading historical data...
Loading historical data...

Documentation

Showing up to 5 results
|